Location: Coffee Creek Observatory
(38.8077°N, 94.7179°W)
Time: 08:02:14
(UTC-06:00)

Daily predictions for brighter satellites

Satellite Brightness Start Highest point End
(mag) Time Altitude Azimuth Time Altitude Azimuth Time Altitude Azimuth
IRAS Rocket 4.2 17:22:48 10° SSE 17:28:20 82° ENE 17:33:53 10° NNW
SJ-12 4.1 17:24:38 10° SSE 17:28:47 85° W 17:32:57 10° NNW
Cosmos 1862 4.4 17:30:54 10° NNW 17:34:48 50° W 17:38:42 10° S
CENTAUR R/B 3.2 17:32:45 10° SW 17:38:37 54° NW 17:45:21 10° NNE
Cosmos 1703 Rocket 4.4 17:37:25 10° SSE 17:41:18 29° E 17:45:10 10° NNE
ERBS 2.5 17:38:18 10° NNW 17:41:37 51° NE 17:44:57 10° ESE
Cosmos 1782 3.9 17:40:53 10° SE 17:44:10 24° E 17:47:26 10° NE
CSL-04 Rocket 3.7 17:41:48 10° SSE 17:47:04 85° WSW 17:52:26 10° NNW
Cosmos 2082 Rocket 3.2 17:42:43 10° N 17:47:13 23° NE 17:51:41 10° ESE
BREEZE-M DEB (TANK) 4.3 17:46:09 10° WNW 17:48:00 20° NNW 17:50:19 10° NE
Cosmos 468 Rocket 4.2 17:44:51 10° NNW 17:50:02 77° WSW 17:55:08 10° SSE
Cosmos 1340 4.2 17:48:14 10° SSW 17:51:45 37° WNW 17:55:17 10° N
Okean 2 Rocket 4.5 17:50:17 10° NNE 17:53:23 18° ENE 17:56:29 10° ESE
GENESIS II 4.1 17:50:27 10° NNW 17:54:24 81° ENE 17:58:16 10° SSE
ALOS 3.3 17:51:15 10° ESE 17:54:57 24° ENE 17:58:42 10° NNE
METEOR-M 4.4 17:52:18 10° SE 17:57:21 46° ENE 18:02:26 10° N
BREEZE-M DEB (TANK) 3.3 17:48:42 10° WNW 17:58:09 76° SW 18:01:37 10° SE
Cosmos 405 Rocket 4.2 17:56:22 10° SE 17:58:47 16° E 17:58:57 16° E
Cosmos 972 Rocket 4.3 17:55:18 10° NNW 18:00:10 65° WSW 18:05:03 10° S
SMAP 3.4 17:59:24 10° S 18:04:00 70° WSW 18:08:40 10° NNW
ERS-2 2.3 18:01:11 10° SSE 18:04:42 46° ENE 18:08:15 10° N
Cosmos 1908 Rocket 3.4 18:03:42 10° N 18:08:02 68° E 18:12:19 10° SSE
SKYMED 2 3.7 18:04:22 10° NNE 18:08:36 51° E 18:12:49 10° S
Cosmos 1763 Rocket 3.5 18:04:51 10° NNW 18:10:05 87° WSW 18:15:12 10° SSE
Cosmos 1733 Rocket 4.4 18:05:59 10° NNW 18:10:12 44° W 18:14:25 10° SSW
Cosmos 2233 Rocket 4.2 18:06:00 10° SSW 18:12:15 74° W 18:18:29 10° N
Meteor 1-10 Rocket 4.4 18:09:04 10° SSE 18:14:26 48° E 18:19:57 10° NNE
Cosmos 972 4.3 18:14:01 10° NNW 18:19:02 88° W 18:23:54 10° SSE
Sich 1 Rocket 3.5 18:15:54 10° N 18:20:21 78° E 18:24:48 10° S
BREEZE-M R/B 2.8 18:18:08 10° NW 18:20:55 50° NE 18:22:51 26° E
SL-27 R/B 2.2 18:19:16 10° N 18:22:35 62° ENE 18:25:54 10° SSE
Cosmos 1503 Rocket 3.9 18:23:12 10° S 18:28:26 67° ESE 18:32:49 15° NNE
CZ-4C R/B 3.6 18:27:23 10° NNW 18:33:33 31° NE 18:35:39 27° ENE
FENGYUN 3A 3.6 18:29:44 10° SSE 18:35:03 61° ENE 18:40:24 10° N
Cosmos 968 Rocket 4.2 18:33:01 10° SSE 18:37:11 30° ESE 18:37:11 30° ESE
Okean 1-7 3.0 18:33:53 10° S 18:38:15 89° W 18:42:40 10° N
Cosmos 540 Rocket 3.4 18:34:18 10° NNW 18:39:27 65° ENE 18:44:33 10° SSE
Cosmos 1633 2.7 18:36:03 10° N 18:39:43 76° W 18:43:22 10° S
Cosmos 1513 Rocket 4.4 18:33:59 10° S 18:40:15 70° E 18:46:28 10° NNE
CZ-4 R/B 3.4 18:39:16 10° SSW 18:42:39 28° W 18:46:00 10° NW
DMSP B5D1-3 4.4 18:37:38 10° NNE 18:42:49 72° ESE 18:47:56 10° S
BREEZE-M DEB (TANK) 4.2 18:41:32 10° NNW 18:42:15 17° NNW 18:42:15 17° NNW
Cosmos 836 Rocket 4.4 18:38:30 10° NNW 18:43:45 69° ENE 18:48:59 10° SSE
USA 234 3.2 18:39:52 23° NE 18:44:17 86° NW 18:50:49 10° SW
Cosmos 2297 3.6 18:38:46 10° SSW 18:44:28 84° ESE 18:48:34 20° NNE
Cosmos 841 Rocket 4.2 18:39:32 10° NNW 18:44:42 57° WSW 18:49:49 10° S
Cosmos 1833 Rocket 2.6 18:40:00 10° NNW 18:45:36 68° ENE 18:51:12 10° SSE
Meteor 1-11 Rocket 3.9 18:40:21 10° N 18:46:01 47° ENE 18:51:31 10° SSE
Cosmos 2278 Rocket 3.6 18:45:17 10° SW 18:50:28 36° WNW 18:55:41 10° N
Cosmos 1782 Rocket 3.9 18:48:06 10° NNW 18:52:25 65° W 18:56:43 10° S
Cosmos 44 Rocket 3.9 18:48:04 10° NNW 18:51:58 39° NNE 18:51:58 39° NNE
Cosmos 1891 Rocket 4.3 18:46:38 10° S 18:52:50 85° E 18:58:57 10° N
YAOGAN 1 4.4 18:52:23 10° SSW 18:56:15 32° W 19:00:10 10° NNW
COSMO-SKYMED 1 3.7 18:52:31 10° N 18:56:39 43° WNW 19:00:45 10° SW
Cosmos 1441 Rocket 3.6 18:58:33 10° S 19:01:41 54° S 19:01:41 54° S
SPOT 3 Rocket 4.1 18:58:59 10° S 19:04:07 60° WSW 19:09:18 10° NNW
OAO 3 Rocket 4.3 19:00:33 10° SW 19:04:52 31° SSE 19:04:52 31° SSE
Cosmos 292 Rocket 3.8 19:01:01 10° NNW 19:05:03 59° NNE 19:05:03 59° NNE
Nadezhda 4 Rocket 3.8 19:06:51 10° N 19:12:59 72° E 19:19:04 10° SSE
Cosmos 2034 Rocket 4.1 19:06:51 10° S 19:13:14 78° W 19:19:37 10° N
Timation 2 Rocket 4.3 19:08:21 10° NNW 19:14:18 49° NE 19:14:18 49° NE
PKM 4.3 19:08:35 10° SW 19:16:56 82° NW 19:17:02 81° NNW
MOS 1-B Rocket 4.4 19:13:55 10° SSE 19:20:56 71° ENE 19:29:13 10° N
Cosmos 44 4.0 19:20:31 10° NNW 19:23:45 45° NNW 19:23:45 45° NNW
Cosmos 2082 Rocket 3.0 19:26:06 10° NNW 19:31:35 50° WSW 19:36:58 10° S
USA 229 DEB 4.1 19:25:06 10° SSW 19:30:03 45° SSE 19:30:03 45° SSE
USA 229 4.1 19:25:13 10° SSW 19:30:06 44° SSE 19:30:06 44° SSE
ALOS 4.0 19:28:03 10° SSW 19:32:13 32° W 19:36:24 10° NNW
Thor Agena Rocket 4.0 19:39:43 57° WSW 19:39:43 57° WSW 19:44:09 10° SSW
FengYun 1-2 T 4.5 19:34:21 10° S 19:39:48 65° WSW 19:45:21 10° NNW
CZ-4C R/B 3.5 20:15:23 10° NW 20:20:54 53° WNW 20:20:54 53° WNW
